Location: Caltech
(34.1382°N, 118.1253°W)
Time: 15:11:36
(UTC-07:00)

Cosmos 1833 - Visible Passes

Search period start: 27 August 2016 00:00
Search period end: 06 September 2016 00:00
Orbit: 833 x 866 km, 70.9° (Epoch: 26 August)

Date Brightness Start Highest point End Pass type
(mag) Time Alt. Az. Time Alt. Az. Time Alt. Az.
27 Aug 6.8 20:00:29 10° NW 20:04:32 20° W 20:08:38 10° SSW visible
28 Aug 6.9 19:47:45 10° NW 19:51:51 21° W 19:55:57 10° SSW visible
04 Sep 6.9 05:53:03 10° SE 05:56:49 19° E 06:00:36 10° ENE visible
05 Sep 6.9 05:40:23 10° SE 05:44:07 19° E 05:47:52 10° ENE visible
